| time (UTC) | temp F | wind direction | speed MPH | gust MPH | rain 1hr in | rain 24hr in | rain mn in | humidity % | barometer mb |
| 20260508064003 | 58 | 75 | 2.0 | 3.0 | 0.00 | 0.00 | 0.00 | 24 | 1027.4 |
| 20260508063503 | 57 | 99 | 2.0 | 4.0 | 0.00 | 0.00 | 0.00 | 25 | 1027.4 |
| 20260508063003 | 57 | 82 | 2.0 | 4.0 | 0.00 | 0.00 | 0.00 | 27 | 1027.3 |
| 20260508062503 | 57 | 19 | 2.0 | 4.0 | 0.00 | 0.00 | 0.00 | 27 | 1027.4 |
| 20260508062003 | 57 | 12 | 2.0 | 5.0 | 0.00 | 0.00 | 0.00 | 27 | 1027.5 |
| 20260508061505 | 57 | 34 | 2.0 | 5.0 | 0.00 | 0.00 | 0.00 | 30 | 1027.5 |
| 20260508061003 | 56 | 18 | 2.0 | 5.0 | 0.00 | 0.00 | 0.00 | 29 | 1027.3 |
| 20260508060714 | 56 | 21 | 1.0 | 4.0 | 0.00 | 0.00 | 0.00 | 31 | 1027.3 |
| 20260508060004 | 55 | 88 | 1.0 | 2.0 | 0.00 | 0.00 | 0.00 | 30 | 1027.1 |
| 20260508055715 | 54 | 57 | 2.0 | 3.0 | 0.00 | 0.00 | 0.00 | 31 | 1027.1 |
| 20260508055213 | 54 | 37 | 2.0 | 3.0 | 0.00 | 0.00 | 0.00 | 31 | 1027.0 |
| 20260508054716 | 54 | 3 | 2.0 | 3.0 | 0.00 | 0.00 | 0.00 | 32 | 1027.0 |
| 20260508054214 | 53 | 34 | 1.0 | 3.0 | 0.00 | 0.00 | 0.00 | 33 | 1026.8 |
| 20260508053503 | 53 | 90 | 0.0 | 1.0 | 0.00 | 0.00 | 0.00 | 39 | 1026.7 |
| 20260508053003 | 50 | 135 | 0.0 | 1.0 | 0.00 | 0.00 | 0.00 | 41 | 1026.7 |
| 20260508052503 | 49 | 86 | 0.0 | 2.0 | 0.00 | 0.00 | 0.00 | 45 | 1026.9 |
| 20260508052216 | 49 | 57 | 0.0 | 2.0 | 0.00 | 0.00 | 0.00 | 51 | 1026.9 |
| 20260508051503 | 45 | 344 | 1.0 | 3.0 | 0.00 | 0.00 | 0.00 | 52 | 1026.7 |
| 20260508051003 | 43 | 355 | 1.0 | 3.0 | 0.00 | 0.00 | 0.00 | 55 | 1026.6 |
| 20260508050503 | 42 | 45 | 0.0 | 2.0 | 0.00 | 0.00 | 0.00 | 60 | 1026.6 |
| 20260508050004 | 41 | 0 | 0.0 | 0.0 | 0.00 | 0.00 | 0.00 | 62 | 1026.6 |
| 20260508045503 | 40 | 0 | 0.0 | 0.0 | 0.00 | 0.00 | 0.00 | 65 | 1026.6 |
| 20260508045003 | 40 | 0 | 0.0 | 0.0 | 0.00 | 0.00 | 0.00 | 67 | 1026.5 |
| 20260508044503 | 40 | 0 | 0.0 | 0.0 | 0.00 | 0.00 | 0.00 | 67 | 1026.5 |
| 20260508044003 | 39 | 0 | 0.0 | 0.0 | 0.00 | 0.00 | 0.00 | 71 | 1026.5 |
| 20260508043503 | 38 | 0 | 0.0 | 0.0 | 0.00 | 0.00 | 0.00 | 73 | 1026.5 |
| 20260508043215 | 38 | 0 | 0.0 | 0.0 | 0.00 | 0.00 | 0.00 | 74 | 1026.4 |
| 20260508042503 | 36 | 0 | 0.0 | 0.0 | 0.00 | 0.00 | 0.00 | 73 | 1026.4 |
| 20260508042216 | 36 | 0 | 0.0 | 0.0 | 0.00 | 0.00 | 0.00 | 75 | 1026.4 |
| 20260508041714 | 35 | 0 | 0.0 | 0.0 | 0.00 | 0.00 | 0.00 | 79 | 1026.3 |
| 20260508041003 | 35 | 0 | 0.0 | 0.0 | 0.00 | 0.00 | 0.00 | 80 | 1026.3 |
| 20260508040503 | 34 | 0 | 0.0 | 0.0 | 0.00 | 0.00 | 0.00 | 82 | 1026.1 |
| 20260508040004 | 33 | 0 | 0.0 | 0.0 | 0.00 | 0.00 | 0.00 | 84 | 1026.2 |
| 20260508035503 | 33 | 0 | 0.0 | 0.0 | 0.00 | 0.00 | 0.00 | 85 | 1026.2 |
| 20260508035214 | 33 | 0 | 0.0 | 0.0 | 0.00 | 0.00 | 0.00 | 86 | 1025.9 |
| 20260508034717 | 32 | 0 | 0.0 | 0.0 | 0.00 | 0.00 | 0.00 | 86 | 1026.0 |
| 20260508034003 | 31 | 0 | 0.0 | 0.0 | 0.00 | 0.00 | 0.00 | 88 | 1025.9 |
| 20260508033503 | 30 | 0 | 0.0 | 0.0 | 0.00 | 0.00 | 0.00 | 88 | 1026.0 |
| 20260508033003 | 30 | 0 | 0.0 | 0.0 | 0.00 | 0.00 | 0.00 | 88 | 1025.9 |
| 20260508032503 | 30 | 0 | 0.0 | 0.0 | 0.00 | 0.00 | 0.00 | 89 | 1026.0 |
| 20260508032003 | 30 | 0 | 0.0 | 0.0 | 0.00 | 0.00 | 0.00 | 88 | 1026.0 |
| 20260508031503 | 29 | 0 | 0.0 | 0.0 | 0.00 | 0.00 | 0.00 | 88 | 1025.7 |
| 20260508031003 | 29 | 0 | 0.0 | 0.0 | 0.00 | 0.00 | 0.00 | 87 | 1025.8 |
| 20260508030503 | 28 | 0 | 0.0 | 0.0 | 0.00 | 0.00 | 0.00 | 82 | 1025.8 |
| 20260508030004 | 28 | 0 | 0.0 | 0.0 | 0.00 | 0.00 | 0.00 | 81 | 1025.7 |
| 20260508025717 | 27 | 0 | 0.0 | 0.0 | 0.00 | 0.00 | 0.00 | 81 | 1025.7 |
| 20260508025215 | 27 | 0 | 0.0 | 0.0 | 0.00 | 0.00 | 0.00 | 81 | 1025.5 |
| 20260508024713 | 27 | 0 | 0.0 | 0.0 | 0.00 | 0.00 | 0.00 | 81 | 1025.6 |
| 20260508024003 | 27 | 0 | 0.0 | 0.0 | 0.00 | 0.00 | 0.00 | 80 | 1025.5 |
| 20260508023503 | 27 | 0 | 0.0 | 0.0 | 0.00 | 0.00 | 0.00 | 80 | 1025.3 |
| 20260508023003 | 27 | 0 | 0.0 | 0.0 | 0.00 | 0.00 | 0.00 | 80 | 1025.3 |
| 20260508022715 | 27 | 0 | 0.0 | 0.0 | 0.00 | 0.00 | 0.00 | 80 | 1025.4 |
| 20260508022003 | 27 | 0 | 0.0 | 0.0 | 0.00 | 0.00 | 0.00 | 79 | 1025.0 |
| 20260508021503 | 26 | 0 | 0.0 | 0.0 | 0.00 | 0.00 | 0.00 | 80 | 1025.2 |
| 20260508021003 | 27 | 0 | 0.0 | 0.0 | 0.00 | 0.00 | 0.00 | 79 | 1025.0 |
| 20260508020503 | 27 | 0 | 0.0 | 0.0 | 0.00 | 0.00 | 0.00 | 78 | 1024.8 |
| 20260508020004 | 27 | 0 | 0.0 | 0.0 | 0.00 | 0.00 | 0.00 | 78 | 1025.1 |
| 20260508015503 | 27 | 0 | 0.0 | 0.0 | 0.00 | 0.00 | 0.00 | 78 | 1024.9 |
| 20260508015003 | 27 | 0 | 0.0 | 0.0 | 0.00 | 0.00 | 0.00 | 77 | 1024.8 |
| 20260508014504 | 27 | 0 | 0.0 | 0.0 | 0.00 | 0.00 | 0.00 | 76 | 1024.8 |
| 20260508014004 | 27 | 0 | 0.0 | 0.0 | 0.00 | 0.00 | 0.00 | 75 | 1024.7 |
| 20260508013503 | 27 | 0 | 0.0 | 0.0 | 0.00 | 0.00 | 0.00 | 75 | 1024.6 |
| 20260508013003 | 27 | 0 | 0.0 | 0.0 | 0.00 | 0.00 | 0.00 | 75 | 1024.7 |
| 20260508012715 | 27 | 0 | 0.0 | 0.0 | 0.00 | 0.00 | 0.00 | 74 | 1024.6 |
| 20260508012003 | 27 | 0 | 0.0 | 0.0 | 0.00 | 0.00 | 0.00 | 74 | 1024.5 |
| 20260508011503 | 27 | 0 | 0.0 | 0.0 | 0.00 | 0.00 | 0.00 | 74 | 1024.4 |
| 20260508011003 | 27 | 0 | 0.0 | 0.0 | 0.00 | 0.00 | 0.00 | 74 | 1024.5 |
| 20260508010503 | 28 | 0 | 0.0 | 0.0 | 0.00 | 0.00 | 0.00 | 74 | 1024.4 |
| 20260508010004 | 27 | 0 | 0.0 | 0.0 | 0.00 | 0.00 | 0.00 | 74 | 1024.2 |
| 20260508005503 | 28 | 0 | 0.0 | 0.0 | 0.00 | 0.00 | 0.00 | 74 | 1024.2 |
| 20260508005216 | 28 | 0 | 0.0 | 0.0 | 0.00 | 0.00 | 0.00 | 74 | 1024.2 |
| 20260508004503 | 28 | 0 | 0.0 | 0.0 | 0.00 | 0.00 | 0.00 | 74 | 1024.3 |
| 20260508004003 | 28 | 0 | 0.0 | 0.0 | 0.00 | 0.00 | 0.00 | 77 | 1024.2 |
| 20260508003503 | 28 | 0 | 0.0 | 0.0 | 0.00 | 0.00 | 0.00 | 77 | 1024.1 |
| 20260508003004 | 29 | 0 | 0.0 | 0.0 | 0.00 | 0.00 | 0.00 | 76 | 1024.1 |
| 20260508002503 | 29 | 0 | 0.0 | 0.0 | 0.00 | 0.00 | 0.00 | 75 | 1024.0 |
| 20260508002003 | 29 | 0 | 0.0 | 0.0 | 0.00 | 0.00 | 0.00 | 76 | 1023.9 |
| 20260508001503 | 30 | 0 | 0.0 | 0.0 | 0.00 | 0.00 | 0.00 | 76 | 1023.9 |
| 20260508001003 | 30 | 0 | 0.0 | 0.0 | 0.00 | 0.00 | 0.00 | 75 | 1023.7 |
| 20260508000503 | 30 | 0 | 0.0 | 0.0 | 0.00 | 0.00 | 0.00 | 74 | 1023.7 |
| 20260508000216 | 30 | 0 | 0.0 | 0.0 | 0.00 | 0.00 | 0.00 | 73 | 1023.8 |
| 20260507235503 | 30 | 0 | 0.0 | 0.0 | 0.00 | 0.00 | 0.00 | 72 | 1023.7 |
| 20260507235003 | 30 | 0 | 0.0 | 0.0 | 0.00 | 0.00 | 0.00 | 72 | 1023.5 |
| 20260507234503 | 31 | 0 | 0.0 | 0.0 | 0.00 | 0.00 | 0.00 | 72 | 1023.4 |
| 20260507234213 | 31 | 0 | 0.0 | 0.0 | 0.00 | 0.00 | 0.00 | 72 | 1023.3 |
| 20260507233503 | 31 | 0 | 0.0 | 0.0 | 0.00 | 0.00 | 0.00 | 72 | 1023.3 |
| 20260507233003 | 31 | 0 | 0.0 | 0.0 | 0.00 | 0.00 | 0.00 | 71 | 1023.3 |
| 20260507232717 | 31 | 0 | 0.0 | 0.0 | 0.00 | 0.00 | 0.00 | 70 | 1023.3 |
| 20260507232003 | 31 | 0 | 0.0 | 0.0 | 0.00 | 0.00 | 0.00 | 70 | 1023.1 |
| 20260507231504 | 32 | 0 | 0.0 | 0.0 | 0.00 | 0.00 | 0.00 | 69 | 1023.1 |
| 20260507231003 | 32 | 0 | 0.0 | 0.0 | 0.00 | 0.00 | 0.00 | 69 | 1022.9 |
| 20260507230503 | 32 | 0 | 0.0 | 0.0 | 0.00 | 0.00 | 0.00 | 69 | 1022.8 |
| 20260507230005 | 32 | 0 | 0.0 | 0.0 | 0.00 | 0.00 | 0.00 | 68 | 1022.8 |
| 20260507225503 | 32 | 0 | 0.0 | 0.0 | 0.00 | 0.00 | 0.00 | 68 | 1022.8 |
| 20260507225004 | 32 | 0 | 0.0 | 0.0 | 0.00 | 0.00 | 0.00 | 67 | 1022.7 |
| 20260507224504 | 32 | 0 | 0.0 | 0.0 | 0.00 | 0.00 | 0.00 | 66 | 1022.7 |
| 20260507224004 | 32 | 0 | 0.0 | 0.0 | 0.00 | 0.00 | 0.00 | 63 | 1022.6 |
| 20260507223503 | 32 | 0 | 0.0 | 0.0 | 0.00 | 0.00 | 0.00 | 63 | 1022.6 |
| 20260507223004 | 33 | 0 | 0.0 | 0.0 | 0.00 | 0.00 | 0.00 | 62 | 1022.5 |
| 20260507222503 | 33 | 0 | 0.0 | 0.0 | 0.00 | 0.00 | 0.00 | 62 | 1022.6 |
| 20260507222003 | 34 | 0 | 0.0 | 0.0 | 0.00 | 0.00 | 0.00 | 60 | 1022.5 |
| 20260507221503 | 34 | 0 | 0.0 | 0.0 | 0.00 | 0.00 | 0.00 | 59 | 1022.4 |
| 20260507221003 | 35 | 0 | 0.0 | 0.0 | 0.00 | 0.00 | 0.00 | 60 | 1022.4 |
| 20260507220503 | 35 | 0 | 0.0 | 0.0 | 0.00 | 0.00 | 0.00 | 60 | 1022.2 |
| 20260507220004 | 35 | 0 | 0.0 | 0.0 | 0.00 | 0.00 | 0.00 | 60 | 1022.2 |
| 20260507215503 | 35 | 0 | 0.0 | 0.0 | 0.00 | 0.00 | 0.00 | 59 | 1022.1 |
| 20260507215004 | 36 | 0 | 0.0 | 0.0 | 0.00 | 0.00 | 0.00 | 58 | 1022.2 |
| 20260507214503 | 36 | 0 | 0.0 | 0.0 | 0.00 | 0.00 | 0.00 | 58 | 1022.2 |
| 20260507214003 | 36 | 0 | 0.0 | 0.0 | 0.00 | 0.00 | 0.00 | 58 | 1022.1 |
| 20260507213503 | 35 | 0 | 0.0 | 0.0 | 0.00 | 0.00 | 0.00 | 58 | 1022.0 |
| 20260507213003 | 35 | 0 | 0.0 | 0.0 | 0.00 | 0.00 | 0.00 | 56 | 1021.9 |
| 20260507212503 | 35 | 0 | 0.0 | 0.0 | 0.00 | 0.00 | 0.00 | 53 | 1022.0 |
| 20260507212003 | 36 | 0 | 0.0 | 0.0 | 0.00 | 0.00 | 0.00 | 51 | 1021.8 |
| 20260507211504 | 36 | 0 | 0.0 | 0.0 | 0.00 | 0.00 | 0.00 | 50 | 1021.7 |
| 20260507211004 | 36 | 0 | 0.0 | 0.0 | 0.00 | 0.00 | 0.00 | 50 | 1021.6 |
| 20260507210715 | 36 | 0 | 0.0 | 0.0 | 0.00 | 0.00 | 0.00 | 50 | 1021.6 |
| 20260507210233 | 37 | 0 | 0.0 | 0.0 | 0.00 | 0.00 | 0.00 | 49 | 1021.6 |
| 20260507205716 | 38 | 0 | 0.0 | 0.0 | 0.00 | 0.00 | 0.00 | 53 | 1021.5 |
| 20260507205213 | 38 | 0 | 0.0 | 0.0 | 0.00 | 0.00 | 0.00 | 53 | 1021.4 |
| 20260507204503 | 38 | 0 | 0.0 | 0.0 | 0.00 | 0.00 | 0.00 | 52 | 1021.3 |
| 20260507204003 | 39 | 0 | 0.0 | 0.0 | 0.00 | 0.00 | 0.00 | 51 | 1021.3 |
| 20260507203503 | 39 | 0 | 0.0 | 0.0 | 0.00 | 0.00 | 0.00 | 50 | 1021.2 |
| 20260507203006 | 39 | 0 | 0.0 | 0.0 | 0.00 | 0.00 | 0.00 | 47 | 1021.2 |
| 20260507202503 | 39 | 0 | 0.0 | 0.0 | 0.00 | 0.00 | 0.00 | 44 | 1021.0 |
| 20260507202004 | 40 | 0 | 0.0 | 0.0 | 0.00 | 0.00 | 0.00 | 43 | 1021.0 |
| 20260507201503 | 40 | 0 | 0.0 | 0.0 | 0.00 | 0.00 | 0.00 | 42 | 1021.0 |
| 20260507201003 | 40 | 0 | 0.0 | 0.0 | 0.00 | 0.00 | 0.00 | 42 | 1020.8 |
| 20260507200503 | 40 | 0 | 0.0 | 0.0 | 0.00 | 0.00 | 0.00 | 41 | 1020.8 |
| 20260507200004 | 40 | 0 | 0.0 | 0.0 | 0.00 | 0.00 | 0.00 | 41 | 1020.6 |
| 20260507195716 | 40 | 0 | 0.0 | 0.0 | 0.00 | 0.00 | 0.00 | 41 | 1020.6 |
| 20260507195003 | 41 | 0 | 0.0 | 0.0 | 0.00 | 0.00 | 0.00 | 41 | 1020.5 |
| 20260507194717 | 41 | 0 | 0.0 | 0.0 | 0.00 | 0.00 | 0.00 | 40 | 1020.5 |
| 20260507194003 | 42 | 0 | 0.0 | 0.0 | 0.00 | 0.00 | 0.00 | 37 | 1020.4 |
| 20260507193503 | 42 | 0 | 0.0 | 0.0 | 0.00 | 0.00 | 0.00 | 36 | 1020.3 |
| 20260507193216 | 42 | 0 | 0.0 | 0.0 | 0.00 | 0.00 | 0.00 | 36 | 1020.2 |
| 20260507192503 | 42 | 0 | 0.0 | 0.0 | 0.00 | 0.00 | 0.00 | 35 | 1020.2 |
| 20260507192003 | 42 | 0 | 0.0 | 0.0 | 0.00 | 0.00 | 0.00 | 34 | 1020.0 |
| 20260507191503 | 43 | 0 | 0.0 | 0.0 | 0.00 | 0.00 | 0.00 | 34 | 1020.0 |
| 20260507191003 | 43 | 0 | 0.0 | 0.0 | 0.00 | 0.00 | 0.00 | 32 | 1019.8 |
| 20260507190504 | 44 | 0 | 0.0 | 0.0 | 0.00 | 0.00 | 0.00 | 32 | 1019.9 |
| 20260507190005 | 44 | 0 | 0.0 | 0.0 | 0.00 | 0.00 | 0.00 | 31 | 1019.8 |
| 20260507185503 | 45 | 0 | 0.0 | 0.0 | 0.00 | 0.00 | 0.00 | 30 | 1019.7 |
| 20260507185003 | 45 | 0 | 0.0 | 0.0 | 0.00 | 0.00 | 0.00 | 30 | 1019.5 |
| 20260507184504 | 45 | 0 | 0.0 | 0.0 | 0.00 | 0.00 | 0.00 | 30 | 1019.5 |
| 20260507184003 | 46 | 0 | 0.0 | 0.0 | 0.00 | 0.00 | 0.00 | 30 | 1019.7 |
| 20260507183503 | 46 | 0 | 0.0 | 0.0 | 0.00 | 0.00 | 0.00 | 30 | 1019.5 |
| 20260507183003 | 47 | 0 | 0.0 | 0.0 | 0.00 | 0.00 | 0.00 | 32 | 1019.6 |
| 20260507182503 | 47 | 315 | 0.0 | 1.0 | 0.00 | 0.00 | 0.00 | 32 | 1019.4 |
| 20260507182004 | 48 | 315 | 0.0 | 2.0 | 0.00 | 0.00 | 0.00 | 32 | 1019.4 |
| 20260507181716 | 48 | 315 | 0.0 | 2.0 | 0.00 | 0.00 | 0.00 | 32 | 1019.3 |
| 20260507181003 | 49 | 26 | 0.0 | 3.0 | 0.00 | 0.00 | 0.00 | 27 | 1019.3 |
| 20260507180504 | 49 | 3 | 0.0 | 5.0 | 0.00 | 0.00 | 0.00 | 26 | 1019.2 |
| 20260507180004 | 50 | 32 | 1.0 | 5.0 | 0.00 | 0.00 | 0.00 | 25 | 1019.2 |
| 20260507175503 | 50 | 17 | 1.0 | 5.0 | 0.00 | 0.00 | 0.00 | 25 | 1019.0 |
| 20260507175003 | 50 | 328 | 2.0 | 5.0 | 0.00 | 0.00 | 0.00 | 23 | 1018.9 |
| 20260507174503 | 51 | 316 | 1.0 | 4.0 | 0.00 | 0.00 | 0.00 | 24 | 1019.0 |
| 20260507174003 | 51 | 357 | 1.0 | 4.0 | 0.00 | 0.00 | 0.00 | 24 | 1018.8 |
| 20260507173503 | 51 | 355 | 2.0 | 4.0 | 0.00 | 0.00 | 0.00 | 23 | 1018.9 |
| 20260507173004 | 51 | 337 | 1.0 | 4.0 | 0.00 | 0.00 | 0.00 | 23 | 1018.7 |
| 20260507172503 | 51 | 301 | 1.0 | 3.0 | 0.00 | 0.00 | 0.00 | 23 | 1018.7 |
| 20260507172213 | 52 | 307 | 2.0 | 3.0 | 0.00 | 0.00 | 0.00 | 22 | 1018.6 |
| 20260507171504 | 52 | 307 | 2.0 | 5.0 | 0.00 | 0.00 | 0.00 | 21 | 1018.5 |
| 20260507171003 | 52 | 349 | 3.0 | 7.0 | 0.00 | 0.00 | 0.00 | 21 | 1018.6 |
| 20260507170503 | 53 | 8 | 3.0 | 7.0 | 0.00 | 0.00 | 0.00 | 20 | 1018.5 |
| 20260507170215 | 53 | 352 | 3.0 | 7.0 | 0.00 | 0.00 | 0.00 | 20 | 1018.5 |
| 20260507165503 | 53 | 325 | 3.0 | 4.0 | 0.00 | 0.00 | 0.00 | 21 | 1018.4 |
| 20260507165216 | 53 | 318 | 3.0 | 4.0 | 0.00 | 0.00 | 0.00 | 21 | 1018.6 |
| 20260507164503 | 53 | 302 | 3.0 | 4.0 | 0.00 | 0.00 | 0.00 | 20 | 1018.3 |
| 20260507164003 | 53 | 306 | 2.0 | 4.0 | 0.00 | 0.00 | 0.00 | 21 | 1018.4 |
| 20260507163503 | 53 | 311 | 2.0 | 5.0 | 0.00 | 0.00 | 0.00 | 20 | 1018.4 |
| 20260507163004 | 53 | 324 | 3.0 | 5.0 | 0.00 | 0.00 | 0.00 | 21 | 1018.3 |
| 20260507162716 | 54 | 330 | 3.0 | 5.0 | 0.00 | 0.00 | 0.00 | 21 | 1018.3 |
| 20260507162003 | 54 | 326 | 3.0 | 5.0 | 0.00 | 0.00 | 0.00 | 21 | 1018.2 |
| 20260507161503 | 54 | 305 | 3.0 | 4.0 | 0.00 | 0.00 | 0.00 | 21 | 1018.2 |
| 20260507161003 | 54 | 297 | 3.0 | 4.0 | 0.00 | 0.00 | 0.00 | 21 | 1018.2 |
| 20260507160503 | 54 | 305 | 2.0 | 4.0 | 0.00 | 0.00 | 0.00 | 21 | 1018.2 |
| 20260507160004 | 54 | 306 | 3.0 | 5.0 | 0.00 | 0.00 | 0.00 | 21 | 1018.1 |
| 20260507155714 | 54 | 302 | 3.0 | 5.0 | 0.00 | 0.00 | 0.00 | 21 | 1018.1 |
| 20260507155217 | 54 | 330 | 4.0 | 11.0 | 0.00 | 0.00 | 0.00 | 21 | 1018.1 |
| 20260507154504 | 55 | 325 | 5.0 | 11.0 | 0.00 | 0.00 | 0.00 | 20 | 1017.9 |
| 20260507154004 | 56 | 323 | 3.0 | 9.0 | 0.00 | 0.00 | 0.00 | 23 | 1017.9 |
| 20260507153504 | 56 | 333 | 3.0 | 5.0 | 0.00 | 0.00 | 0.00 | 22 | 1017.8 |
| 20260507153004 | 56 | 318 | 2.0 | 5.0 | 0.00 | 0.00 | 0.00 | 23 | 1017.8 |
| 20260507152503 | 56 | 302 | 2.0 | 4.0 | 0.00 | 0.00 | 0.00 | 23 | 1017.8 |
| 20260507152003 | 56 | 299 | 3.0 | 4.0 | 0.00 | 0.00 | 0.00 | 23 | 1017.7 |
| 20260507151504 | 58 | 322 | 3.0 | 4.0 | 0.00 | 0.00 | 0.00 | 22 | 1017.5 |
| 20260507151003 | 57 | 317 | 2.0 | 4.0 | 0.00 | 0.00 | 0.00 | 22 | 1017.6 |
| 20260507150713 | 57 | 324 | 3.0 | 5.0 | 0.00 | 0.00 | 0.00 | 23 | 1017.6 |
| 20260507150004 | 57 | 344 | 4.0 | 5.0 | 0.00 | 0.00 | 0.00 | 23 | 1017.5 |
| 20260507145714 | 57 | 306 | 4.0 | 6.0 | 0.00 | 0.00 | 0.00 | 22 | 1017.5 |
| 20260507145003 | 58 | 286 | 3.0 | 6.0 | 0.00 | 0.00 | 0.00 | 21 | 1017.5 |
| 20260507144503 | 60 | 307 | 3.0 | 4.0 | 0.00 | 0.00 | 0.00 | 20 | 1017.6 |
| 20260507144213 | 60 | 291 | 3.0 | 4.0 | 0.00 | 0.00 | 0.00 | 20 | 1017.4 |
| 20260507143503 | 60 | 301 | 4.0 | 4.0 | 0.00 | 0.00 | 0.00 | 20 | 1017.5 |
| 20260507143003 | 59 | 313 | 4.0 | 4.0 | 0.00 | 0.00 | 0.00 | 20 | 1017.4 |
| 20260507142503 | 59 | 300 | 4.0 | 8.0 | 0.00 | 0.00 | 0.00 | 20 | 1017.2 |
| 20260507142003 | 58 | 304 | 4.0 | 8.0 | 0.00 | 0.00 | 0.00 | 21 | 1017.2 |
| 20260507141503 | 58 | 340 | 5.0 | 8.0 | 0.00 | 0.00 | 0.00 | 21 | 1017.2 |
| 20260507141003 | 58 | 329 | 5.0 | 8.0 | 0.00 | 0.00 | 0.00 | 21 | 1017.4 |
| 20260507140504 | 58 | 301 | 4.0 | 5.0 | 0.00 | 0.00 | 0.00 | 20 | 1017.3 |
| 20260507140005 | 59 | 330 | 4.0 | 6.0 | 0.00 | 0.00 | 0.00 | 20 | 1017.2 |
| 20260507135504 | 60 | 344 | 4.0 | 6.0 | 0.00 | 0.00 | 0.00 | 20 | 1017.1 |
| 20260507135003 | 60 | 309 | 4.0 | 6.0 | 0.00 | 0.00 | 0.00 | 19 | 1017.1 |
| 20260507134503 | 61 | 304 | 3.0 | 4.0 | 0.00 | 0.00 | 0.00 | 18 | 1017.2 |
| 20260507134003 | 61 | 325 | 2.0 | 7.0 | 0.00 | 0.00 | 0.00 | 19 | 1016.9 |
| 20260507133717 | 61 | 313 | 3.0 | 7.0 | 0.00 | 0.00 | 0.00 | 19 | 1016.9 |
| 20260507133003 | 61 | 326 | 4.0 | 7.0 | 0.00 | 0.00 | 0.00 | 18 | 1016.9 |
| 20260507132503 | 61 | 335 | 4.0 | 7.0 | 0.00 | 0.00 | 0.00 | 18 | 1017.0 |
| 20260507132003 | 61 | 321 | 3.0 | 8.0 | 0.00 | 0.00 | 0.00 | 19 | 1017.0 |
| 20260507131503 | 60 | 348 | 4.0 | 8.0 | 0.00 | 0.00 | 0.00 | 18 | 1017.0 |
| 20260507131003 | 61 | 341 | 5.0 | 9.0 | 0.00 | 0.00 | 0.00 | 18 | 1016.9 |
| 20260507130503 | 61 | 334 | 4.0 | 9.0 | 0.00 | 0.00 | 0.00 | 17 | 1016.9 |
| 20260507130218 | 62 | 355 | 3.0 | 9.0 | 0.00 | 0.00 | 0.00 | 17 | 1016.8 |
| 20260507125503 | 63 | 322 | 3.0 | 5.0 | 0.00 | 0.00 | 0.00 | 16 | 1016.8 |
| 20260507125214 | 62 | 332 | 3.0 | 5.0 | 0.00 | 0.00 | 0.00 | 17 | 1016.8 |
| 20260507124503 | 62 | 338 | 3.0 | 8.0 | 0.00 | 0.00 | 0.00 | 18 | 1017.0 |
| 20260507124003 | 62 | 318 | 3.0 | 5.0 | 0.00 | 0.00 | 0.00 | 17 | 1016.9 |
| 20260507123713 | 62 | 349 | 3.0 | 5.0 | 0.00 | 0.00 | 0.00 | 17 | 1016.9 |
| 20260507123003 | 62 | 341 | 3.0 | 5.0 | 0.00 | 0.00 | 0.00 | 18 | 1016.9 |
| 20260507122503 | 62 | 326 | 2.0 | 5.0 | 0.00 | 0.00 | 0.00 | 18 | 1016.9 |
| 20260507122003 | 60 | 341 | 2.0 | 4.0 | 0.00 | 0.00 | 0.00 | 18 | 1016.9 |
| 20260507121504 | 60 | 16 | 3.0 | 6.0 | 0.00 | 0.00 | 0.00 | 19 | 1016.8 |
| 20260507121003 | 59 | 45 | 3.0 | 7.0 | 0.00 | 0.00 | 0.00 | 18 | 1017.0 |
| 20260507120715 | 59 | 63 | 3.0 | 7.0 | 0.00 | 0.00 | 0.00 | 18 | 1017.0 |
| 20260507120004 | 59 | 56 | 1.0 | 3.0 | 0.00 | 0.00 | 0.00 | 18 | 1017.1 |
| 20260507115503 | 59 | 348 | 2.0 | 8.0 | 0.00 | 0.00 | 0.00 | 18 | 1017.1 |
| 20260507115003 | 59 | 358 | 3.0 | 8.0 | 0.00 | 0.00 | 0.00 | 19 | 1016.9 |
| 20260507114503 | 59 | 30 | 2.0 | 4.0 | 0.00 | 0.00 | 0.00 | 19 | 1017.1 |
| 20260507114003 | 60 | 36 | 2.0 | 3.0 | 0.00 | 0.00 | 0.00 | 18 | 1017.0 |
| 20260507113503 | 61 | 36 | 2.0 | 3.0 | 0.00 | 0.00 | 0.00 | 17 | 1017.0 |
| 20260507113216 | 60 | 37 | 2.0 | 4.0 | 0.00 | 0.00 | 0.00 | 18 | 1017.0 |
| 20260507112503 | 59 | 4 | 4.0 | 7.0 | 0.00 | 0.00 | 0.00 | 18 | 1017.0 |
| 20260507112003 | 59 | 360 | 4.0 | 7.0 | 0.00 | 0.00 | 0.00 | 19 | 1016.9 |
| 20260507111504 | 59 | 15 | 3.0 | 6.0 | 0.00 | 0.00 | 0.00 | 17 | 1017.0 |
| 20260507111003 | 59 | 68 | 2.0 | 4.0 | 0.00 | 0.00 | 0.00 | 18 | 1016.9 |
| 20260507110503 | 58 | 55 | 3.0 | 6.0 | 0.00 | 0.00 | 0.00 | 18 | 1017.0 |
| 20260507110004 | 59 | 29 | 3.0 | 7.0 | 0.00 | 0.00 | 0.00 | 19 | 1016.9 |
| 20260507105503 | 60 | 21 | 3.0 | 7.0 | 0.00 | 0.00 | 0.00 | 18 | 1017.1 |
| 20260507105003 | 60 | 4 | 2.0 | 4.0 | 0.00 | 0.00 | 0.00 | 18 | 1017.1 |
| 20260507104504 | 60 | 356 | 2.0 | 4.0 | 0.00 | 0.00 | 0.00 | 18 | 1017.0 |
| 20260507104003 | 61 | 4 | 3.0 | 5.0 | 0.00 | 0.00 | 0.00 | 18 | 1017.0 |
| 20260507103504 | 60 | 14 | 4.0 | 5.0 | 0.00 | 0.00 | 0.00 | 18 | 1017.1 |
| 20260507103003 | 62 | 16 | 3.0 | 5.0 | 0.00 | 0.00 | 0.00 | 18 | 1017.0 |
| 20260507102503 | 61 | 17 | 2.0 | 5.0 | 0.00 | 0.00 | 0.00 | 16 | 1017.2 |
| 20260507102003 | 62 | 349 | 2.0 | 5.0 | 0.00 | 0.00 | 0.00 | 18 | 1017.1 |
| 20260507101716 | 62 | 26 | 2.0 | 5.0 | 0.00 | 0.00 | 0.00 | 18 | 1017.1 |
| 20260507101213 | 61 | 10 | 3.0 | 5.0 | 0.00 | 0.00 | 0.00 | 18 | 1017.0 |
| 20260507100503 | 62 | 24 | 2.0 | 4.0 | 0.00 | 0.00 | 0.00 | 18 | 1017.0 |
| 20260507100004 | 61 | 63 | 1.0 | 4.0 | 0.00 | 0.00 | 0.00 | 17 | 1016.9 |
| 20260507095503 | 63 | 125 | 1.0 | 4.0 | 0.00 | 0.00 | 0.00 | 16 | 1016.9 |
| 20260507095003 | 64 | 174 | 1.0 | 3.0 | 0.00 | 0.00 | 0.00 | 16 | 1016.9 |
| 20260507094713 | 62 | 152 | 1.0 | 3.0 | 0.00 | 0.00 | 0.00 | 17 | 1016.9 |
| 20260507094003 | 61 | 119 | 2.0 | 3.0 | 0.00 | 0.00 | 0.00 | 17 | 1016.9 |
| 20260507093714 | 60 | 124 | 1.0 | 2.0 | 0.00 | 0.00 | 0.00 | 18 | 1016.9 |
| 20260507093003 | 60 | 120 | 2.0 | 4.0 | 0.00 | 0.00 | 0.00 | 18 | 1016.9 |
| 20260507092503 | 60 | 92 | 2.0 | 4.0 | 0.00 | 0.00 | 0.00 | 18 | 1016.8 |
| 20260507092003 | 60 | 99 | 2.0 | 4.0 | 0.00 | 0.00 | 0.00 | 18 | 1016.9 |
| 20260507091503 | 62 | 51 | 2.0 | 7.0 | 0.00 | 0.00 | 0.00 | 17 | 1016.8 |
| 20260507091214 | 62 | 7 | 2.0 | 7.0 | 0.00 | 0.00 | 0.00 | 16 | 1016.9 |
| 20260507090717 | 62 | 6 | 2.0 | 7.0 | 0.00 | 0.00 | 0.00 | 17 | 1016.8 |
| 20260507090004 | 62 | 44 | 1.0 | 3.0 | 0.00 | 0.00 | 0.00 | 17 | 1016.8 |
| 20260507085503 | 60 | 38 | 1.0 | 3.0 | 0.00 | 0.00 | 0.00 | 17 | 1017.0 |
| 20260507085003 | 60 | 94 | 1.0 | 3.0 | 0.00 | 0.00 | 0.00 | 18 | 1017.0 |
| 20260507084503 | 59 | 126 | 3.0 | 4.0 | 0.00 | 0.00 | 0.00 | 19 | 1016.9 |
| 20260507084003 | 59 | 138 | 3.0 | 4.0 | 0.00 | 0.00 | 0.00 | 19 | 1017.1 |
| 20260507083503 | 60 | 121 | 2.0 | 4.0 | 0.00 | 0.00 | 0.00 | 18 | 1017.0 |
| 20260507083003 | 61 | 44 | 1.0 | 4.0 | 0.00 | 0.00 | 0.00 | 17 | 1017.0 |
| 20260507082505 | 60 | 63 | 2.0 | 4.0 | 0.00 | 0.00 | 0.00 | 18 | 1017.0 |
| 20260507082003 | 60 | 104 | 3.0 | 4.0 | 0.00 | 0.00 | 0.00 | 18 | 1017.1 |
| 20260507081504 | 59 | 127 | 3.0 | 4.0 | 0.00 | 0.00 | 0.00 | 19 | 1017.0 |
| 20260507081215 | 59 | 125 | 3.0 | 6.0 | 0.00 | 0.00 | 0.00 | 19 | 1017.1 |
| 20260507080503 | 58 | 130 | 3.0 | 6.0 | 0.00 | 0.00 | 0.00 | 19 | 1017.0 |
| 20260507080004 | 60 | 131 | 2.0 | 4.0 | 0.00 | 0.00 | 0.00 | 19 | 1017.0 |
| 20260507075503 | 59 | 136 | 3.0 | 4.0 | 0.00 | 0.00 | 0.00 | 19 | 1017.2 |
| 20260507075004 | 59 | 143 | 3.0 | 4.0 | 0.00 | 0.00 | 0.00 | 19 | 1017.3 |
| 20260507074503 | 59 | 126 | 2.0 | 3.0 | 0.00 | 0.00 | 0.00 | 19 | 1017.2 |
| 20260507074003 | 59 | 119 | 2.0 | 4.0 | 0.00 | 0.00 | 0.00 | 19 | 1017.2 |
| 20260507073503 | 58 | 132 | 3.0 | 4.0 | 0.00 | 0.00 | 0.00 | 20 | 1017.0 |
| 20260507073004 | 58 | 138 | 2.0 | 4.0 | 0.00 | 0.00 | 0.00 | 20 | 1017.3 |
| 20260507072503 | 59 | 142 | 2.0 | 3.0 | 0.00 | 0.00 | 0.00 | 21 | 1017.0 |
| 20260507072214 | 58 | 140 | 2.0 | 4.0 | 0.00 | 0.00 | 0.00 | 21 | 1017.2 |
| 20260507071504 | 56 | 143 | 3.0 | 4.0 | 0.00 | 0.00 | 0.00 | 21 | 1017.1 |
| 20260507071003 | 56 | 125 | 3.0 | 4.0 | 0.00 | 0.00 | 0.00 | 22 | 1017.2 |
| 20260507070504 | 56 | 117 | 4.0 | 8.0 | 0.00 | 0.00 | 0.00 | 22 | 1017.1 |
| 20260507070008 | 55 | 122 | 4.0 | 8.0 | 0.00 | 0.00 | 0.00 | 19 | 1017.2 |
| 20260507065504 | 55 | 132 | 4.0 | 5.0 | 0.00 | 0.00 | 0.00 | 19 | 1017.1 |
| 20260507065003 | 56 | 130 | 3.0 | 5.0 | 0.00 | 0.00 | 0.00 | 22 | 1017.2 |
| 20260507064503 | 56 | 99 | 2.0 | 3.0 | 0.00 | 0.00 | 0.00 | 22 | 1017.1 |